User: anonymous   Login
Location: Elstree
(51.6403°N, 0.2969°W)
Time: 17:51:52
(UTC+00:00)
Language:

Cosmos 2084 Rocket - Orbit

View from above orbital plane
View from above orbital plane
View from above satellite
View from above satellite

Ground track
Ground track

The orbit data is extracted from the following two-line orbital elements,

1 20666U 90055D   21129.21318220  .00000033  00000-0  21191-4 0  9997
2 20666  62.7855  76.0090 0093280  30.4551 330.1914 14.92482674673911
Epoch (UTC): 09 May 2021 05:06:58
Eccentricity: 0.0093280
inclination: 62.7855°
perigee height: 525 km
apogee height: 655 km
right ascension of ascending node: 76.0090°
argument of perigee: 30.4551°
revolutions per day: 14.92482674
mean anomaly at epoch: 330.1914°
orbit number at epoch: 67391

The dashed part of the orbit path shows where the satellite is in the earth's shadow,  

DLR